Regional Weather Roundup
Issued by NWS State College, PA

Home | Current Version | Previous Version | Text Only | Print | Product List | Glossary Off
Versions: 1 2 3 4 5 6 7 8 9 10 11 12 13 14 15 16 17 18 19 20 21 22 23 24 25 26 27 28 29 30 31 32 33 34 35 36 37 38 39 40 41 42 43 44 45 46 47 48 49 50

000
ASUS41 KCTP 200110
RWRCTP

REGIONAL WEATHER ROUNDUP
NATIONAL WEATHER SERVICE STATE COLLEGE PA
900 PM EDT SUN OCT 19 2014

Note: "fair" indicates few or no clouds below 12,000 feet with no
significant weather and/or obstructions to visibility.

* = STATION THAT DOES NOT REPORT PRECIPITATION /E.G. RAIN...SNOW...ETC/
    THUNDER OR FOG.

PAZ002>004-007>009-013>016-020>023-029>032-200200-
WESTERN PENNSYLVANIA

CITY           SKY/WX    TMP DP  RH WIND       PRES   REMARKS
ERIE           PTCLDY    42  35  76 S6        30.06F
MEADVILLE      MOCLDY    42  33  70 CALM      30.05F
FRANKLIN*      MOCLDY    41  30  65 SW3       30.07F
NEW CASTLE       N/A     38  35  89 CALM      30.09F
BEAVER COUNTY  NOT AVBL
BUTLER*        PTCLDY    41  30  65 CALM      30.09F
PITTSBURGH INT MOCLDY    44  35  70 CALM      30.08F
PITTSBURGH     PTCLDY    47  30  51 SW6       30.08F
INDIANA*       CLEAR     41  34  75 CALM      30.12S
LATROBE        CLEAR     43  36  75 VRB5      30.10F
WASHINGTON CO* MOCLDY    39  34  81 CALM      30.10F
$$

PAZ004>006-010>012-017>019-024>028-033>037-041-042-045-046-049>053-200200-
CENTRAL PENNSYLVANIA

CITY           SKY/WX    TMP DP  RH WIND       PRES   REMARKS
BRADFORD       MOCLDY    36  28  73 CALM      30.04F
DUBOIS         PTCLDY    39  31  72 SW5       30.05F
CLEARFIELD     PTCLDY    41  32  70 S3        30.07S
JOHNSTOWN      MOCLDY    42  29  59 W7        30.07S
ALTOONA        MOCLDY    42  35  76 CALM      30.08S
STATE COLLEGE  CLEAR     43  32  65 CALM      30.07R
WILLIAMSPORT   CLEAR     41  30  65 CALM      30.06R
SELINSGROVE    CLEAR     40  34  79 CALM      30.07R
FT INDIANTOWN  CLEAR     39  37  89 CALM      30.07R
CAPITAL CITY   CLEAR     49  31  49 NW6       30.07S
HARRISBURG     MOCLDY    51  32  48 CALM      30.07R
YORK           CLEAR     39  33  79 W5        30.08R
$$

PAZ038>040-043-044-047-048-054-055-060>062-067>071-200200-
EASTERN PENNSYLVANIA

CITY           SKY/WX    TMP DP  RH WIND       PRES   REMARKS
SCRANTON       CLEAR     39  28  64 N5        30.06R
MOUNT POCONO   CLEAR     34  26  72 NW3       30.02S
ALLENTOWN      CLEAR     42  27  55 CALM      30.06R
QUAKERTOWN*    CLEAR     37  32  81 CALM      30.07R
READING        PTCLDY    44  32  62 CALM      30.06R
LANCASTER      CLEAR     45  32  60 CALM      30.07R
COATESVILLE    CLEAR     43  32  65 NW7       30.06S
POTTSTOWN      CLEAR     39  32  76 CALM      30.07S
BLUE BELL      CLEAR     39  36  87 CALM      30.05S
DOYLESTOWN     CLEAR     39  32  76 CALM      30.06R
WILLOW GROVE   NOT AVBL
NORTH PHILA    CLEAR     47  28  47 NW3       30.08R
PHILADELPHIA   CLEAR     52  27  38 NW5       30.08R
$$



USA.gov is the U.S. government's official web portal to all federal, state and local government web resources and services.